Home > Weather > Thônex > Past weeks

Flag for Switzerland Past Weather in Thônex, Geneva, Switzerland — Yesterday and Last 2 Weeks

Now
64 °F

Passing clouds.


Feels Like: 64 °F
Forecast: 63 / 76 °F
Wind: 1 mph from North

Location: Geneva Cointrin Airport

Current Time: Jun 29, 2016 at 2:10:47 AM

Latest Report: Jun 29, 2016 at 1:20 AM


Visibility: N/A

Pressure: 30.04 "Hg

Humidity: 83%

Dew Point: 59 °F

Location of ThônexLocation

Past Weather in Thônex — Graph

°F

Thônex Temperature Yesterday

Maximum temperature yesterday: 81 °F (at 5:20 PM)
Minimum temperature yesterday: 54 °F (at 5:20 AM)
Average temperature yesterday: 68 °F

High & Low Weather Summary for the Past Weeks

 TemperatureHumidityPressure
High90 °F (Jun 23, 6:20 PM)100% (Jun 16, 5:50 AM)30.27 "Hg (Jun 16, 5:50 AM)
Low48 °F (Jun 20, 4:20 AM)29% (Jun 24, 4:20 PM)29.59 "Hg (Jun 15, 5:50 PM)
Average65 °F70%30.03 "Hg
* Reported Jun 14 12:20 AM — Jun 29 12:20 AM, Thônex, Weather by CustomWeather, © 2016

Note: Actual official high and low records may vary slightly from our data, if they occured in-between our weather recording intervals... More about our weather records

Advertising

Thônex Weather History for the Previous 24 Hours

Scroll right to see more
 ConditionsComfort  
Time TempWeatherWind HumidityBarometerVisibility
12:20 AM
Wed, Jun 29
66 °FClear.1 mph73%30.04 "Hg10 mi
11:50 PM
Tue, Jun 28
66 °FClear.6 mph73%30.04 "Hg10 mi
11:20 PM68 °FPassing clouds.3 mph69%30.04 "HgN/A
10:50 PM68 °FClear.1 mph69%30.04 "Hg10 mi
10:20 PM68 °FSunny.2 mph69%30.04 "Hg10 mi
9:50 PM72 °FPassing clouds.5 mph61%30.04 "HgN/A
9:20 PM72 °FSunny.7 mph57%30.04 "Hg10 mi
8:50 PM75 °FPassing clouds.9 mph50%30.01 "HgN/A
8:20 PM77 °FPassing clouds.10 mph47%30.01 "HgN/A
7:50 PM77 °FPassing clouds.10 mph51%30.01 "HgN/A
7:20 PM79 °FPassing clouds.8 mph45%30.01 "HgN/A
6:50 PM79 °FPassing clouds.13 mph48%30.01 "HgN/A
6:20 PM79 °FPassing clouds.12 mph48%30.01 "HgN/A
5:50 PM79 °FPassing clouds.9 mph48%30.01 "HgN/A
5:20 PM81 °FPassing clouds.9 mph45%30.01 "HgN/A
4:50 PM79 °FPassing clouds.10 mph48%30.04 "HgN/A
4:20 PM79 °FPassing clouds.9 mph45%30.04 "HgN/A
3:50 PM79 °FPassing clouds.9 mph48%30.04 "HgN/A
3:20 PM79 °FPassing clouds.8 mph45%30.07 "HgN/A
2:50 PM79 °FPassing clouds.7 mph45%30.07 "HgN/A
2:20 PM77 °FPassing clouds.3 mph47%30.07 "HgN/A
1:50 PM75 °FPassing clouds.6 mph44%30.09 "HgN/A
1:20 PM73 °FPassing clouds.6 mph53%30.09 "HgN/A
12:50 PM73 °FPassing clouds.5 mph50%30.09 "HgN/A
12:20 PM72 °FPassing clouds.5 mph53%30.09 "HgN/A
11:50 AM72 °FPassing clouds.7 mph53%30.12 "HgN/A
11:20 AM70 °FPassing clouds.3 mph57%30.12 "HgN/A
10:50 AM70 °FPassing clouds.1 mph60%30.12 "HgN/A
10:20 AM70 °FPassing clouds.1 mph57%30.12 "HgN/A
9:50 AM68 °FPassing clouds.1 mph64%30.15 "HgN/A
9:20 AM66 °FPassing clouds.1 mph68%30.15 "HgN/A
8:50 AM64 °FPassing clouds.2 mph73%30.15 "HgN/A
8:20 AM63 °FPassing clouds.1 mph73%30.15 "HgN/A
7:50 AM61 °FPassing clouds.1 mph77%30.15 "HgN/A
7:20 AM59 °FSunny.1 mph82%30.15 "Hg10 mi
6:50 AM55 °FSunny.1 mph88%30.15 "Hg10 mi
6:20 AM54 °FClear.2 mph94%30.15 "Hg10 mi
5:50 AM54 °FPassing clouds.1 mph94%30.15 "HgN/A
5:20 AM54 °FPassing clouds.3 mph94%30.15 "HgN/A
4:50 AM55 °FPassing clouds.2 mph88%30.15 "HgN/A
4:20 AM55 °FClear.2 mph88%30.15 "Hg10 mi
3:50 AM55 °FClear.1 mph88%30.15 "Hg10 mi
2:50 AM57 °FClear.No wind82%30.15 "Hg10 mi
2:20 AM57 °FClear.1 mph88%30.15 "Hg10 mi
Weather by CustomWeather, © 2016

See weather overviewHow to use our weather pages